TimeEDT,TemperatureF,Dew PointF,Humidity,Sea Level PressureIn,VisibilityMPH,Wind Direction,Wind SpeedMPH,Gust SpeedMPH,PrecipitationIn,Events,Conditions,WindDirDegrees,DateUTC
12:53 AM,75.0,75.0,100,29.95,10.0,South,3.5,-,N/A,,Clear,180,2012-10-07 04:53:00
1:53 AM,75.0,73.9,96,29.91,10.0,SE,10.4,-,0.01,,Clear,130,2012-10-07 05:53:00
2:53 AM,75.0,73.9,96,29.90,10.0,NE,3.5,-,N/A,,Mostly Cloudy,40,2012-10-07 06:53:00
3:53 AM,75.0,75.0,100,29.90,10.0,NNE,3.5,-,N/A,,Clear,30,2012-10-07 07:53:00
4:53 AM,75.0,75.0,100,29.89,10.0,ENE,3.5,-,N/A,,Clear,70,2012-10-07 08:53:00
5:53 AM,75.0,75.0,100,29.90,10.0,NE,3.5,-,N/A,,Clear,50,2012-10-07 09:53:00
6:53 AM,75.0,75.0,100,29.91,10.0,NE,4.6,-,N/A,,Clear,50,2012-10-07 10:53:00
7:53 AM,75.0,75.0,100,29.92,10.0,NE,5.8,-,N/A,,Clear,40,2012-10-07 11:53:00
8:53 AM,77.0,75.9,96,29.94,10.0,NE,4.6,-,N/A,,Clear,50,2012-10-07 12:53:00
9:53 AM,78.1,75.9,93,29.95,10.0,ENE,9.2,-,N/A,,Clear,60,2012-10-07 13:53:00
10:53 AM,82.9,75.9,79,29.97,10.0,NE,8.1,-,N/A,,Clear,40,2012-10-07 14:53:00
11:53 AM,84.0,75.0,74,29.97,10.0,NE,6.9,-,N/A,,Partly Cloudy,50,2012-10-07 15:53:00
12:53 PM,84.9,75.0,72,29.95,10.0,Calm,Calm,-,N/A,,Scattered Clouds,0,2012-10-07 16:53:00
1:53 PM,87.1,73.9,65,29.92,10.0,NE,5.8,-,N/A,,Partly Cloudy,40,2012-10-07 17:53:00
2:53 PM,88.0,73.0,61,29.90,10.0,NE,6.9,-,N/A,,Mostly Cloudy,40,2012-10-07 18:53:00
3:53 PM,87.1,75.0,67,29.89,10.0,West,4.6,-,N/A,,Scattered Clouds,260,2012-10-07 19:53:00
4:53 PM,88.0,75.9,67,29.89,10.0,West,6.9,-,N/A,Thunderstorm,Scattered Clouds,260,2012-10-07 20:53:00
5:11 PM,82.4,73.4,74,29.91,10.0,ESE,13.8,26.5,N/A,Thunderstorm,Mostly Cloudy,120,2012-10-07 21:11:00
5:20 PM,78.8,73.4,83,29.92,10.0,ESE,17.3,27.6,N/A,Thunderstorm,Mostly Cloudy,120,2012-10-07 21:20:00
5:27 PM,75.2,75.2,100,29.93,4.0,SE,17.3,27.6,0.00,Rain-Thunderstorm,Light Rain,130,2012-10-07 21:27:00
5:34 PM,75.2,73.4,94,29.93,2.5,SE,18.4,25.3,0.02,Rain,Rain,130,2012-10-07 21:34:00
5:39 PM,75.2,75.2,100,29.93,1.8,ESE,13.8,25.3,0.04,Rain,Heavy Rain,120,2012-10-07 21:39:00
5:48 PM,75.2,75.2,100,29.93,3.0,ESE,13.8,-,0.05,Rain,Light Rain,120,2012-10-07 21:48:00
5:53 PM,75.9,75.0,97,29.93,4.0,ESE,13.8,-,0.05,Rain,Light Rain,120,2012-10-07 21:53:00
6:04 PM,75.2,75.2,100,29.93,2.0,SE,15.0,24.2,0.02,Rain,Rain,130,2012-10-07 22:04:00
6:14 PM,75.2,75.2,100,29.94,2.0,ESE,11.5,-,0.05,Rain-Thunderstorm,Rain,110,2012-10-07 22:14:00
6:29 PM,75.2,73.4,94,29.94,2.0,East,9.2,-,0.13,Rain,Heavy Rain,100,2012-10-07 22:29:00
6:53 PM,73.9,73.9,100,29.94,4.0,East,6.9,-,0.22,Rain,Heavy Rain,90,2012-10-07 22:53:00
7:53 PM,73.9,73.0,97,29.96,10.0,NE,4.6,-,0.02,Rain,Light Rain,40,2012-10-07 23:53:00
8:53 PM,75.0,73.9,96,29.97,10.0,NE,4.6,-,0.00,,Mostly Cloudy,40,2012-10-08 00:53:00
9:53 PM,75.0,73.9,96,29.98,10.0,ENE,4.6,-,N/A,,Scattered Clouds,70,2012-10-08 01:53:00
10:53 PM,75.0,73.9,96,29.98,10.0,ENE,4.6,-,N/A,,Partly Cloudy,70,2012-10-08 02:53:00
11:53 PM,75.0,73.9,96,29.96,10.0,ENE,4.6,-,N/A,,Partly Cloudy,60,2012-10-08 03:53:00